Location: Jackson Park
(37.2862°N, 79.9123°W)
Time: 02:21:23
(UTC+00:00)

Tiros 1 despin weight - Pass Details

Date: 10 May 2026
Orbit: 554 x 591 km, 48.2° (Epoch: 6 June)

Event Time Altitude Azimuth Distance (km) Brightness Sun altitude
Rises 11:54:13 0° 233° (SW) 2,739 ? 18.0°
Reaches altitude 10° 11:56:28 10° 233° (SW) 1,841 ? 18.5°
Maximum altitude 12:00:40 88° 144° (SE) 561 ? 19.3°
Drops below altitude 10° 12:04:52 10° 56° (NE) 1,835 ? 20.1°
Sets 12:07:07 0° 56° (ENE) 2,730 ? 20.6°
